Loyall, KY

12:42 AM EST on February 28, 2017 (GMT -0500)
Harlan

Weather History for KI35 - November, 2012

Change the Weather History Date:

Monday, November 12, 2012

  Actual Average (KLOZ) Record (KLOZ)
Temperature  
Mean Temperature 52 °F -  
Max Temperature 68 °F 56 °F 76 °F (1978)
Min Temperature 35 °F 34 °F 20 °F (1976)
Degree Days  
Heating Degree Days 14    
Growing Degree Days 2 (Base 50)    
Moisture  
Dew Point 44 °F    
Average Humidity 68    
Maximum Humidity 93    
Minimum Humidity 46    
Precipitation  
Precipitation 0.00 in - - ()
Sea Level Pressure  
Sea Level Pressure 30.23 in    
Wind  
Wind Speed 4 mph ()    
Max Wind Speed 17 mph    
Max Gust Speed 30 mph    
Visibility 9.4 miles    
Events      
Averages and records for this station are not official NWS values.
T = Trace of Precipitation, MM = Missing Value Source: Averaged Metar Reports

Daily Weather History Graph

Daily Weather History Graph

Search for Another Location

Airport or City:

Trip Planner

Search our weather history database for the weather conditions in past years. The results will help you decide how hot, cold, wet, or windy it might be!

Date:

Astronomy

Nov. 12, 2012 Rise Set
Actual Time 7:09 AM EST 5:25 PM EST
Civil Twilight 6:41 AM EST 5:53 PM EST
Nautical Twilight 6:10 AM EST 6:24 PM EST
Astronomical Twilight 5:39 AM EST 6:55 PM EST
Moon 5:34 AM EST (11/12) 4:29 PM EST (11/12)
Length of Visible Light 11h 11m
Length of Day
10h 16m
Waning Crescent, 2% of the Moon is Illuminated
Nov 12
Waning Crescent
Nov 13
New
Nov 20
First Quarter
Nov 28
Full
Dec 6
Last Quarter

Hourly Weather History & Observations

Time (EST) Temp. Windchill Dew Point Humidity Pressure Visibility Wind Dir Wind Speed Gust Speed Precip Events Conditions
12:15 AM 60.8 °F - 44.6 °F 55% 30.23 in 10.0 mi Calm Calm - N/A   Clear
12:35 AM 60.8 °F - 44.6 °F 55% 30.22 in 10.0 mi Calm Calm - N/A   Clear
12:55 AM 60.8 °F - 46.4 °F 59% 30.22 in 10.0 mi South 3.5 mph - N/A   Clear
1:15 AM 60.8 °F - 46.4 °F 59% 30.22 in 10.0 mi South 3.5 mph - N/A   Clear
1:55 AM 62.6 °F - 46.4 °F 55% 30.21 in 10.0 mi South 3.5 mph - N/A   Clear
2:15 AM 60.8 °F - 46.4 °F 59% 30.20 in 10.0 mi South 3.5 mph - N/A   Clear
2:55 AM 62.6 °F - 46.4 °F 55% 30.20 in 10.0 mi SSE 4.6 mph - N/A   Clear
3:15 AM 62.6 °F - 46.4 °F 55% 30.19 in 10.0 mi SE 5.8 mph - N/A   Clear
3:35 AM 62.6 °F - 48.2 °F 59% 30.19 in 10.0 mi SE 5.8 mph - N/A   Clear
3:55 AM 62.6 °F - 48.2 °F 59% 30.18 in 10.0 mi SE 8.1 mph - N/A   Clear
4:15 AM 62.6 °F - 48.2 °F 59% 30.18 in 10.0 mi SE 5.8 mph - N/A   Clear
4:35 AM 62.6 °F - 48.2 °F 59% 30.18 in 10.0 mi SE 6.9 mph - N/A   Clear
4:55 AM 62.6 °F - 50.0 °F 63% 30.17 in 10.0 mi SE 4.6 mph 23.0 mph N/A   Clear
5:15 AM 62.6 °F - 50.0 °F 63% 30.17 in 10.0 mi SE 3.5 mph - N/A   Clear
5:35 AM 62.6 °F - 50.0 °F 63% 30.17 in 10.0 mi SE 4.6 mph 16.1 mph N/A   Clear
5:55 AM 62.6 °F - 50.0 °F 63% 30.17 in 10.0 mi ESE 5.8 mph - N/A   Clear
6:15 AM 62.6 °F - 50.0 °F 63% 30.17 in 10.0 mi South 3.5 mph - N/A   Clear
6:35 AM 62.6 °F - 50.0 °F 63% 30.18 in 10.0 mi Calm Calm - N/A   Clear
6:55 AM 62.6 °F - 50.0 °F 63% 30.19 in 10.0 mi Calm Calm - N/A   Clear
7:15 AM 60.8 °F - 50.0 °F 68% 30.20 in 10.0 mi Calm Calm - N/A   Clear
7:35 AM 62.6 °F - 50.0 °F 63% 30.21 in 10.0 mi South 4.6 mph - N/A   Clear
7:55 AM 62.6 °F - 50.0 °F 63% 30.22 in 10.0 mi Calm Calm - N/A   Clear
8:15 AM 60.8 °F - 50.0 °F 68% 30.22 in 10.0 mi Calm Calm - N/A   Scattered Clouds
8:35 AM 60.8 °F - 50.0 °F 68% 30.22 in 10.0 mi Calm Calm - N/A   Mostly Cloudy
8:55 AM 60.8 °F - 48.2 °F 63% 30.22 in 10.0 mi SSE 5.8 mph - N/A   Overcast
9:15 AM 62.6 °F - 48.2 °F 59% 30.22 in 10.0 mi SE 3.5 mph - N/A   Mostly Cloudy
9:35 AM 62.6 °F - 46.4 °F 55% 30.20 in 10.0 mi SSE 5.8 mph - N/A   Scattered Clouds
9:55 AM 62.6 °F - 46.4 °F 55% 30.20 in 10.0 mi SSE 4.6 mph - N/A   Clear
10:15 AM 62.6 °F - 46.4 °F 55% 30.18 in 10.0 mi Calm Calm - N/A   Clear
10:35 AM 62.6 °F - 46.4 °F 55% 30.17 in 10.0 mi SSE 8.1 mph - N/A   Scattered Clouds
10:55 AM 64.4 °F - 46.4 °F 52% 30.17 in 10.0 mi Calm Calm - N/A   Clear
11:15 AM 64.4 °F - 46.4 °F 52% 30.16 in 10.0 mi SSE 3.5 mph - N/A   Mostly Cloudy
11:35 AM 64.4 °F - 46.4 °F 52% 30.15 in 10.0 mi SSE 3.5 mph - N/A   Overcast
11:55 AM 66.2 °F - 46.4 °F 49% 30.13 in 10.0 mi Calm Calm - N/A   Overcast
12:15 PM 66.2 °F - 46.4 °F 49% 30.11 in 10.0 mi ESE 5.8 mph - N/A   Overcast
12:35 PM 66.2 °F - 46.4 °F 49% 30.12 in 10.0 mi SSW 5.8 mph - N/A   Overcast
1:15 PM 68.0 °F - 46.4 °F 46% 30.11 in 10.0 mi SE 5.8 mph 18.4 mph N/A   Overcast
1:35 PM 66.2 °F - 46.4 °F 49% 30.11 in 10.0 mi South 5.8 mph 16.1 mph N/A   Overcast
1:55 PM 64.4 °F - 48.2 °F 56% 30.11 in 10.0 mi SSE 8.1 mph 20.7 mph N/A   Overcast
2:15 PM 62.6 °F - 50.0 °F 63% 30.12 in 10.0 mi West 11.5 mph 16.1 mph N/A   Overcast
2:35 PM 60.8 °F - 51.8 °F 72% 30.14 in 7.0 mi West 11.5 mph 19.6 mph N/A   Overcast
2:55 PM 55.4 °F - 50.0 °F 82% 30.17 in 3.0 mi WNW 15.0 mph 29.9 mph N/A   Overcast
3:55 PM 50.0 °F - 46.4 °F 87% 30.23 in 4.0 mi West 13.8 mph 21.9 mph N/A   Overcast
4:15 PM 48.2 °F - 44.6 °F 87% 30.24 in 7.0 mi West 5.8 mph - N/A   Overcast
4:35 PM 48.2 °F - 44.6 °F 87% 30.24 in 5.0 mi WSW 6.9 mph - N/A   Overcast
4:55 PM 46.4 °F 44.3 °F 44.6 °F 93% 30.26 in 5.0 mi WSW 4.6 mph - N/A   Overcast
5:35 PM 46.4 °F 42.4 °F 44.6 °F 93% 30.28 in 5.0 mi WNW 8.1 mph - N/A   Overcast
5:55 PM 46.4 °F 42.9 °F 42.8 °F 87% 30.28 in 7.0 mi WNW 6.9 mph - N/A   Overcast
6:15 PM 44.6 °F 37.2 °F 41.0 °F 87% 30.29 in 7.0 mi NW 17.3 mph 23.0 mph N/A   Overcast
6:35 PM 44.6 °F 40.2 °F 37.4 °F 76% 30.30 in 10.0 mi West 8.1 mph 16.1 mph N/A   Overcast
6:55 PM 42.8 °F 40.1 °F 39.2 °F 87% 30.30 in 10.0 mi WSW 4.6 mph - N/A   Overcast
7:15 PM 42.8 °F 41.1 °F 39.2 °F 87% 30.31 in 10.0 mi WNW 3.5 mph - N/A   Overcast
7:35 PM 42.8 °F 40.1 °F 37.4 °F 81% 30.31 in 10.0 mi North 4.6 mph - N/A   Overcast
7:55 PM 42.8 °F 40.1 °F 39.2 °F 87% 30.32 in 10.0 mi West 4.6 mph - N/A   Overcast
8:15 PM 42.8 °F 41.1 °F 37.4 °F 81% 30.32 in 10.0 mi West 3.5 mph - N/A   Overcast
8:35 PM 42.8 °F 38.6 °F 37.4 °F 81% 30.33 in 10.0 mi NW 6.9 mph - N/A   Overcast
8:55 PM 41.0 °F 35.8 °F 35.6 °F 81% 30.34 in 10.0 mi WNW 8.1 mph - N/A   Overcast
9:35 PM 41.0 °F 38.0 °F 35.6 °F 81% 30.36 in 10.0 mi West 4.6 mph - N/A   Overcast
9:55 PM 41.0 °F 38.0 °F 35.6 °F 81% 30.37 in 10.0 mi West 4.6 mph - N/A   Overcast
10:15 PM 39.2 °F 35.0 °F 33.8 °F 81% 30.38 in 10.0 mi WNW 5.8 mph - N/A   Overcast
10:35 PM 37.4 °F 33.8 °F 32.0 °F 81% 30.39 in 10.0 mi WNW 4.6 mph - N/A   Scattered Clouds
10:55 PM 37.4 °F - 32.0 °F 81% 30.39 in 10.0 mi Calm Calm - N/A   Scattered Clouds
11:15 PM 35.6 °F - 32.0 °F 87% 30.40 in 10.0 mi Calm Calm - N/A   Scattered Clouds
11:35 PM 35.6 °F 29.9 °F 32.0 °F 87% 30.40 in 10.0 mi NNW 6.9 mph - N/A   Mostly Cloudy
11:55 PM 35.6 °F 31.7 °F 32.0 °F 87% 30.41 in 10.0 mi WNW 4.6 mph - N/A   Mostly Cloudy